Theta_e
286 286 285 284 283 282 282 281 281 281 281 281 281 281 281 280 280 279 279 278 279 279
285 285 285 283 283 282 282 282 281 280 280 280 280 280 280 279 278 278 278 277 278 278
284 284 283 283 282 281 281 281 280 279 279 279 279 279 279 277 278 277 277 277 277 277
283 283 282 281 280 280 280 279 279 279 279 279 278 278 277 276 277 276 276 276 276 276
283 282 281 280 279 279 279 279 279 279 278 278 277 277 276 276 276 275 275 276 276 275
281 281 281 280 279 279 279 278 278 278 277 277 277 276 276 276 275 275 275 275 275 275
281 281 281 280 279 279 278 277 277 277 277 276 276 276 276 275 275 275 275 276 276 275
282 281 281 280 279 279 278 277 277 276 276 275 275 275 275 276 275 275 275 275 276 275
282 282 281 280 280 279 278 277 277 276 275 274 275 279 280 277 276 276 275 274 275 275
282 282 281 281 279 278 277 276 275 274 274 274 274 280 281 280 276 275 274 274 274 275
282 282 281 280 279 278 277 275 275 274 274 274 274 279 281 280 276 274 274 274 274 274
282 281 280 279 278 278 276 275 274 274 273 272 272 279 280 279 274 274 273 274 274 273
282 282 280 280 278 277 276 276 274 274 272 271 269 277 279 279 274 269 272 273 274 276
282 281 281 280 275 274 273 272 270 270 269 269 269 270 278 279 275 272 270 271 271 274
Wind_Speed
11 8 8 9 9 7 7 7 6 6 6 7 7 6 6 4 5 6 5 6 5 3
9 11 10 10 8 8 8 7 8 7 7 7 7 7 6 5 5 5 4 4 4 2
10 9 9 10 10 9 7 7 8 7 7 7 6 6 7 5 4 5 2 2 3 2
9 9 8 9 9 9 7 7 7 7 7 7 6 6 6 5 5 5 3 1 2 2
10 10 10 10 9 8 9 7 7 7 7 7 6 5 6 5 4 4 3 2 1 0
11 11 11 11 10 9 9 7 7 7 7 7 6 5 5 5 4 4 4 3 2 2
12 12 11 10 10 9 8 9 7 6 6 6 6 5 5 5 5 4 4 3 2 3
11 10 10 10 9 8 8 7 7 7 6 6 5 4 5 5 5 5 4 3 3 4
12 12 12 11 10 9 8 8 7 7 7 6 4 11 13 8 4 4 3 3 4 4
13 12 12 11 10 10 10 7 8 7 7 7 6 14 14 13 4 4 4 4 4 5
13 12 10 11 11 10 9 10 8 8 8 7 6 14 15 13 5 4 5 6 6 6
13 12 12 13 12 10 9 8 8 5 8 8 6 15 15 11 4 5 7 6 6 6
12 13 14 13 12 7 6 8 6 7 7 7 7 15 14 11 4 5 6 6 7 13
12 13 12 10 5 6 6 5 5 6 4 6 7 8 15 15 6 7 6 6 6 6
Wind_Direction
135 141 139 145 147 134 127 127 121 108 102 99 95 91 87 83 87 83 78 79 72 79
143 148 153 144 125 126 127 129 126 118 111 104 102 101 101 90 82 81 84 78 67 73
144 142 139 131 129 133 130 127 131 126 116 106 104 105 95 93 96 96 74 104 83 55
141 136 127 131 136 139 134 136 128 122 119 119 110 106 110 127 116 112 131 120 94 51
141 138 138 143 147 143 140 139 133 128 124 123 127 137 145 142 132 161 180 179 160 262
152 152 154 154 151 149 144 131 128 132 134 143 157 160 152 152 177 195 210 215 214 247
165 163 161 155 154 153 146 137 141 152 150 158 170 162 168 179 197 211 221 225 231 251
164 159 155 155 159 150 146 149 153 148 163 170 169 177 189 194 205 217 238 247 256 248
168 166 167 166 161 153 154 157 156 168 175 179 190 204 204 197 204 224 235 256 253 250
173 173 174 166 162 165 167 157 174 183 179 195 199 213 215 219 197 212 223 235 252 248
173 174 169 169 177 171 169 178 180 194 195 198 207 220 223 221 199 213 231 235 239 241
173 172 174 186 184 182 171 177 191 185 191 199 208 222 222 221 173 218 239 238 242 237
173 179 188 185 185 174 182 192 183 201 196 195 205 224 226 227 173 221 241 236 241 244
181 184 186 179 162 160 170 158 184 200 184 199 195 220 230 235 221 224 229 229 233 231